Lapse_Rate
5.4 5.5 5.6 5.5 5.4 5.4 5.3 5.4 5.4 5.5 5.8 5.7 5.3 5.0 4.8 4.7 4.6 4.3 4.0 3.4 3.1 3.1 2.8 2.7 2.7 3.0 4.0 4.5 4.4 4.3 4.0 3.9 3.5 3.0 2.6 2.4 2.2 2.0
5.6 5.6 5.4 5.3 5.3 5.3 5.3 5.3 5.1 5.1 5.7 5.1 4.9 4.5 4.2 3.9 3.7 3.4 2.9 2.8 2.9 2.6 3.0 3.4 3.5 4.0 4.6 5.0 5.2 5.4 5.5 5.4 5.2 4.9 4.4 4.1 4.1 4.0
5.6 5.4 5.2 5.3 5.3 5.2 5.0 5.0 5.0 5.0 5.2 5.6 4.7 4.4 3.8 3.4 3.3 2.5 2.4 2.9 3.8 4.2 4.5 4.6 4.7 4.9 4.8 4.7 4.6 4.7 4.8 4.9 5.0 5.1 5.0 4.3 4.1 4.3
5.3 5.3 5.2 5.2 5.0 4.9 4.9 4.9 4.8 4.6 4.4 4.8 4.6 4.0 3.6 3.5 2.6 2.5 3.5 4.2 4.8 5.1 5.0 4.8 4.9 4.7 4.6 4.4 4.4 4.4 4.6 4.7 4.6 4.5 4.5 4.6 4.6 4.2
5.2 5.1 5.1 4.9 4.9 4.8 4.7 4.6 4.4 4.2 4.0 4.0 4.2 3.6 3.6 3.1 3.0 4.0 4.5 5.0 5.0 5.0 5.1 4.5 4.6 4.7 4.6 4.5 4.3 4.4 4.6 4.6 4.8 4.8 4.7 4.6 4.5 4.5
5.1 4.9 4.8 4.8 4.7 4.6 4.3 4.1 3.9 3.7 3.5 3.1 3.1 3.6 3.4 3.6 4.0 4.5 4.9 5.0 5.1 4.9 5.1 4.8 4.6 4.8 4.8 4.3 4.5 4.2 4.1 4.0 4.3 4.5 4.5 4.6 4.6 4.7
4.8 4.9 4.8 4.7 4.4 4.2 4.0 3.7 3.4 3.3 3.1 2.9 2.9 3.2 4.2 4.3 4.6 4.7 4.9 5.1 5.6 4.6 4.7 5.6 4.9 5.2 4.7 4.8 4.7 4.6 4.5 4.7 4.8 4.9 4.9 5.1 5.0 4.9
4.9 4.9 4.7 4.4 4.1 3.9 3.6 3.5 3.1 2.9 2.9 2.9 3.6 4.1 4.3 4.5 4.4 4.9 5.0 5.0 5.7 5.2 3.7 6.1 4.6 5.2 4.5 4.6 4.7 5.0 5.5 5.9 6.0 5.8 5.7 5.6 5.5 5.4
4.8 4.5 4.1 3.9 3.8 3.6 3.4 3.1 3.2 3.1 3.3 4.0 4.4 4.3 4.1 4.3 4.3 4.8 5.1 4.7 5.0 4.4 3.3 5.7 4.6 5.1 4.4 4.7 4.9 5.3 5.8 6.3 6.4 6.4 6.4 6.4 6.4 6.2
4.4 4.0 3.9 3.7 3.5 3.3 3.2 3.4 3.3 3.8 4.3 4.5 4.4 4.2 4.0 4.1 4.2 4.3 4.3 4.5 5.0 4.3 2.8 4.7 4.5 5.1 5.0 4.8 5.1 5.6 5.9 6.0 6.3 6.4 6.5 6.5 6.5 6.5
4.2 3.9 3.7 3.5 3.3 3.3 3.1 3.2 4.0 4.5 4.8 4.8 4.5 4.2 4.2 4.2 3.9 3.9 4.1 3.8 4.5 4.9 3.5 4.2 4.7 5.2 5.3 5.0 5.4 5.8 5.8 5.8 6.0 6.1 6.1 6.1 6.1 6.2
3.9 3.6 3.5 3.3 3.2 2.9 3.0 4.0 4.5 5.0 5.2 5.1 4.9 4.6 4.5 4.5 4.0 3.5 3.2 3.7 4.0 5.1 3.9 4.6 5.0 4.5 6.5 5.6 5.4 5.6 6.1 5.9 6.2 6.1 5.8 5.7 5.8 5.6
3.7 3.5 3.2 2.9 3.0 3.5 4.1 4.4 4.8 4.8 5.0 4.9 5.0 4.9 4.7 4.4 4.2 4.0 3.8 3.6 4.0 4.5 4.2 4.2 5.2 4.9 4.7 6.5 6.8 5.9 6.1 6.5 6.3 6.0 5.9 5.9 5.7 5.6
3.5 3.3 3.1 3.2 4.1 4.2 4.5 4.6 4.7 4.7 4.8 4.9 4.9 4.8 4.8 4.8 4.6 4.4 4.3 4.2 4.3 4.2 4.7 4.4 4.8 4.6 4.9 5.4 5.9 6.3 6.3 6.3 6.0 6.0 6.3 6.5 6.6 6.6
3.4 3.3 3.5 4.5 4.5 4.5 4.5 4.4 4.5 4.6 4.7 4.8 4.9 4.9 4.8 4.9 4.7 4.8 4.9 4.9 5.2 4.6 4.4 4.5 4.6 4.8 4.6 4.9 5.5 5.9 5.6 6.1 5.9 6.2 6.6 6.6 6.5 6.3
3.4 3.9 4.5 4.6 4.4 4.2 4.2 4.2 4.2 4.4 4.5 4.7 5.0 5.1 5.1 5.0 4.8 4.9 5.5 5.6 5.7 5.6 4.7 4.5 4.9 4.9 5.0 4.8 5.0 5.5 5.6 5.7 6.1 6.3 6.8 6.5 6.4 6.8
4.1 4.3 4.5 4.4 4.4 4.4 4.3 4.0 4.1 4.3 4.4 4.5 4.8 5.1 5.3 5.3 5.4 5.5 5.6 5.8 5.6 5.6 5.9 5.5 5.0 5.0 4.9 4.9 5.4 5.5 5.8 6.1 6.0 6.2 6.7 6.5 6.4 7.0
4.2 4.3 4.3 4.3 4.4 4.5 4.5 4.5 4.3 4.5 4.7 4.9 5.2 5.4 5.7 5.8 6.0 6.0 5.9 5.9 5.8 5.6 5.6 5.6 5.6 5.5 5.2 4.9 4.8 5.6 5.8 6.0 6.0 6.2 6.3 6.5 6.5 6.6
4.3 4.4 4.4 4.4 4.5 4.5 4.6 4.7 4.9 4.8 5.0 5.2 5.4 5.6 5.8 6.0 6.0 6.1 6.1 6.0 6.0 5.6 5.4 5.5 5.4 5.4 5.7 5.6 5.5 5.1 5.8 5.9 6.1 6.2 6.3 6.4 6.4 6.2
4.2 4.5 4.4 4.5 4.5 4.7 4.8 4.9 5.1 5.1 5.2 5.3 5.4 5.5 5.6 5.8 5.9 5.9 5.9 5.8 5.8 5.8 5.8 5.3 5.1 5.1 5.2 5.1 5.6 5.5 5.1 5.6 5.8 6.2 6.5 6.4 6.3 6.2
4.4 4.4 4.5 4.6 4.7 4.8 5.0 5.1 5.1 5.3 5.3 5.5 5.5 5.5 5.5 5.7 5.8 5.7 5.8 5.7 5.6 5.6 5.7 5.4 5.1 5.1 5.0 4.9 5.1 5.3 5.2 5.0 5.6 6.1 6.6 6.6 6.6 6.6
4.5 4.5 4.6 4.7 4.9 5.1 5.2 5.3 5.4 5.6 5.7 5.8 5.9 5.9 5.9 5.8 5.8 5.8 5.7 5.6 5.7 5.7 5.6 5.4 5.2 5.1 4.8 5.0 5.1 5.1 5.4 5.3 5.4 5.8 6.0 6.5 6.7 6.8
4.7 4.8 4.9 5.0 5.1 5.2 5.4 5.5 5.7 5.9 6.0 6.2 6.2 6.3 6.2 6.2 6.2 6.0 5.8 5.5 5.6 5.7 5.6 5.5 5.2 5.0 4.8 4.9 5.0 5.1 5.0 5.1 5.5 5.7 5.9 6.2 6.4 6.5
Wind_Speed
3 4 5 5 6 7 7 8 10 14 14 11 8 11 15 20 23 25 26 28 30 33 35 35 35 38 39 39 38 39 39 38 40 39 40 40 41 40
4 5 6 6 7 7 8 8 9 12 14 11 12 14 14 17 24 26 25 28 30 33 35 36 37 36 36 37 38 38 38 38 37 39 39 39 38 38
5 6 8 8 7 8 8 9 10 11 14 14 13 14 17 16 17 21 23 24 24 32 32 34 35 35 36 37 37 37 36 37 36 37 37 37 38 36
7 7 8 7 10 10 8 11 11 12 13 20 16 14 16 18 16 16 14 22 20 27 32 33 34 36 36 35 35 35 35 35 35 35 35 35 34 34
7 8 10 10 10 9 11 11 11 11 13 13 16 13 13 12 14 16 15 16 17 27 31 32 33 35 35 35 34 34 34 34 33 33 33 34 34 35
8 9 10 11 11 12 12 13 13 12 14 13 13 14 11 14 13 13 13 12 13 14 24 26 30 31 32 32 33 33 32 31 32 33 33 34 33 34
10 10 11 12 16 16 11 13 15 13 11 12 13 11 13 13 14 13 13 13 15 13 14 13 13 13 15 24 25 29 29 30 31 32 32 33 34 34
10 11 11 14 14 18 20 21 18 15 14 12 12 15 18 15 14 13 14 12 15 12 12 16 13 15 14 13 26 30 32 32 32 32 32 33 34 35
11 11 11 9 14 13 17 22 22 22 21 17 16 16 17 16 15 16 16 15 14 14 14 16 13 15 13 14 29 30 31 31 31 31 32 32 33 34
11 13 13 14 14 15 17 14 14 17 16 12 16 17 15 15 15 16 16 17 15 13 13 15 13 14 13 14 30 30 28 27 27 29 31 32 32 33
11 12 12 14 17 23 16 14 18 17 17 21 23 26 25 27 20 11 11 11 13 13 13 11 11 13 14 15 12 19 23 30 30 29 29 30 30 32
12 13 17 15 21 23 16 17 16 17 15 16 15 17 18 16 20 13 9 11 12 12 9 9 12 10 8 8 9 14 12 23 27 29 28 28 29 14
10 11 10 20 23 24 24 16 16 17 19 14 13 11 12 12 11 10 11 9 11 12 16 12 10 11 8 12 12 12 12 13 13 17 25 28 29 24
12 11 12 22 24 25 19 19 22 20 11 11 11 11 10 10 10 11 14 13 11 15 18 16 9 12 12 14 15 12 13 14 12 12 12 19 28 31
10 15 23 21 22 17 17 20 17 9 10 9 10 10 10 11 13 12 13 14 14 15 12 15 12 13 11 13 15 15 15 12 12 11 14 13 13 11
14 12 16 17 16 15 13 10 8 9 10 9 9 10 10 10 10 9 10 11 11 12 12 13 12 13 13 12 13 15 14 10 13 13 13 14 11 9
16 11 10 9 9 9 9 10 9 10 9 10 9 10 10 10 11 10 10 10 10 12 13 11 11 13 12 15 13 13 13 12 11 13 14 12 11 7
11 9 8 9 9 10 10 11 11 12 10 10 10 10 10 10 11 11 10 9 10 12 12 11 12 11 10 10 14 9 10 11 12 13 12 11 10 9
7 7 8 9 9 10 9 10 11 11 11 9 10 10 10 10 13 10 10 10 10 11 11 11 10 9 11 13 11 9 9 12 11 11 10 11 10 10
7 8 9 9 9 10 10 10 10 10 10 10 10 10 10 9 10 10 10 11 10 11 11 10 9 9 9 11 12 14 18 9 10 9 11 9 9 12
8 8 9 9 9 10 10 10 11 10 11 10 10 9 10 9 10 10 10 18 16 10 11 11 10 23 9 9 7 11 11 13 13 10 11 9 9 7
8 9 9 9 9 10 10 10 10 11 10 9 10 10 10 9 10 11 10 10 10 9 10 10 11 9 9 9 11 14 11 11 12 16 10 15 7 6
9 10 10 10 9 10 10 9 10 11 10 10 9 10 10 10 10 10 10 10 9 10 9 10 9 8 9 8 12 10 14 13 10 11 9 17 16 15
Wind_Direction
284 284 284 289 287 287 289 289 295 301 300 304 294 300 308 303 301 301 298 295 298 297 295 294 295 293 296 293 293 291 286 283 281 282 278 277 277 277
299 294 293 294 294 291 289 288 285 288 291 298 298 304 304 304 299 294 295 299 294 295 293 294 294 295 294 293 291 289 288 287 284 282 279 276 276 273
292 291 296 299 294 296 294 289 286 287 288 294 298 305 304 297 298 303 306 299 289 295 294 294 295 294 291 289 289 288 288 286 284 281 280 278 274 272
295 294 297 299 295 296 294 293 290 290 291 296 302 301 297 301 308 292 293 298 296 298 297 296 296 293 292 290 289 286 283 281 280 280 279 280 279 272
291 294 297 299 298 300 299 296 293 292 295 292 293 297 296 306 298 305 299 298 300 301 298 297 296 292 291 290 287 287 287 288 286 281 278 276 275 274
292 289 296 297 295 299 297 298 298 301 290 293 293 298 300 307 299 304 306 305 302 303 293 292 290 291 287 286 288 288 287 285 282 279 277 274 271 271
294 292 293 295 295 293 298 297 301 300 295 292 290 302 305 305 310 310 303 304 299 299 295 294 296 296 286 286 284 285 284 283 280 278 275 272 271 267
296 298 298 297 296 298 300 299 296 292 287 291 304 298 302 306 306 309 302 304 304 298 304 296 296 294 288 285 285 289 289 287 284 281 276 272 269 267
299 301 304 303 303 303 301 294 294 295 293 293 294 297 300 305 305 296 305 299 297 298 300 293 296 291 293 288 290 291 290 287 285 282 279 276 271 267
300 303 305 308 306 305 303 303 299 291 299 302 296 296 294 295 295 302 301 296 290 290 297 292 301 292 296 294 294 292 289 286 286 285 282 279 274 270
304 302 305 301 302 306 311 302 304 304 304 302 298 292 293 299 297 298 292 299 296 299 306 288 299 304 299 292 287 291 294 295 290 287 285 282 276 271
309 308 307 307 312 311 310 312 307 308 313 298 297 305 300 297 297 290 292 293 295 302 297 307 307 315 308 287 296 297 291 292 294 293 294 290 282 275
309 311 311 316 310 317 314 308 305 306 307 305 306 304 305 302 304 304 297 288 290 281 285 304 301 299 282 297 299 295 295 292 294 294 292 288 286 280
311 312 312 311 317 313 312 309 306 312 304 304 304 302 302 303 300 299 293 284 272 273 286 285 278 286 288 289 292 296 301 297 292 291 292 283 283 279
308 303 311 313 315 312 315 312 311 305 305 304 299 298 300 300 297 291 290 291 285 280 277 277 275 280 277 280 285 293 300 300 296 293 305 303 300 289
314 310 313 313 310 308 312 309 308 308 305 301 299 301 298 298 297 299 299 303 297 298 294 282 277 279 283 280 287 291 291 293 305 306 308 307 305 303
325 314 312 314 314 314 313 313 313 313 311 307 304 302 301 303 301 304 298 300 297 302 305 305 296 283 281 279 286 283 293 302 305 311 313 313 312 301
314 309 313 313 314 317 317 316 314 311 309 308 301 299 302 303 301 304 303 297 297 302 304 306 309 313 310 295 261 280 296 298 313 313 317 321 319 322
314 317 313 313 314 314 311 308 305 307 306 299 300 298 296 298 306 300 301 299 301 299 301 303 309 311 316 312 309 290 305 307 312 317 323 328 315 315
316 318 313 313 312 310 306 304 303 304 304 301 298 299 297 296 299 298 299 300 299 301 305 307 307 312 305 302 302 297 297 299 318 317 322 325 314 300
320 316 312 310 308 304 301 300 299 299 300 302 297 295 297 297 294 294 295 301 304 301 303 307 309 311 303 293 287 299 310 312 319 322 319 325 331 329
318 313 312 308 302 299 299 298 298 299 300 299 297 296 296 295 294 295 295 298 300 298 299 298 309 312 313 311 305 308 312 324 330 328 327 347 340 335
312 310 305 300 297 297 298 297 296 295 295 295 294 295 296 296 295 292 292 295 296 300 311 309 313 318 312 310 312 313 319 329 337 339 340 347 345 347